Location: Karcze
(52.0945°N, 22.4786°E)
Time: 12:41:45
(UTC+00:00)

Meteor 1-14 Rocket - Pass Details

Date: 14 July 2020
Orbit: 834 x 918 km, 81.3° (Epoch: 07 August)

Event Time Altitude Azimuth Distance (km) Brightness Sun altitude
Exits shadow 00:22:25 18° 203° (SSW) 1,973 5.5 -12.7°
Maximum altitude 00:26:40 70° 285° (WNW) 907 4.3 -12.4°
Drops below altitude 10° 00:32:23 10° 10° (N) 2,520 8.0 -12.0°
Sets 00:34:52 0° 12° (NNE) 3,474 9.1 -11.8°
